DELTA 1 R/B, 3315

Orbit data source: Space-Track

DELTA 1 R/B, 3315 is space debris originally from a launch on Thu, 04 Jul 1968 UTC launched from the Air Force Western Test Range (AFWTR). Debris objects in space refer to the collection of defunct objects orbiting the Earth. Examples of debris include non-operational satellites, rocket bodies, and fragments generated from explosions, collisions, or faulty payload assembly.

Loading next visibility...
Identifier
3315, 1968-055B
Orbit
Active
Country
Flag of USUS
Related business
Manufacturer
Thiokol/TE
Mission
Spacecraft
Bus & Motor
STAR 37, Unknown motor
Mass
65 kg wet, 65 kg dry
Launch date (UTC)
1968-07-04 (58 years ago)
Launch vehicle
Unknown
Launch site
Air Force Western Test Range (AFWTR)
Object type
Payload
Rocket body
Debris
Shape & HBR
Unknown
Radar Cross Section
Medium (>0.1 m² and <1 m²)

Expand to show TLE details & history
Last TLE update: 23 hours ago

TLE from 23 hours ago
0 DELTA 1 R/B
1 03315U 68055B   26125.07886008  .00000060  00000-0  23277-3 0  9999
2 03315 120.6688 165.4104 2634323 231.6583 134.7346  9.25729745937565
Epoch: 2026-05-05T01:53Z
TLE epoch observation values (Epoch: 2026-05-05T01:53:33.510Z)
Latitude
20.10009°
Longitude
-98.43034°
Altitude
5,237.112 km
Speed
5.201 km/s
True Right ascension
10h 11m 40s
True Declination
20° 01' 55"
Sunlit
Object was in daylight at epoch
Visualization orbit readout
Latitude
Unknown
Longitude
Unknown
Altitude
Unknown
Speed
Unknown
Apparent Right ascension
Unknown
Apparent Declination
Unknown
Sunlit
N/A
Visualization observer readout
Local Sidereal Time
08:44:13
Azimuth
Unknown
Elevation
Unknown
Doppler factor
Unknown
Orbital elements
Apogee altitude
5,726.148 km
Perigee altitude
678.533 km
Semi-major axis
9,580.478 km
Eccentricity
0.26343
Inclination
120.6688°
RAAN
165.4104°
Arg. of periapsis
231.6583°
True anomaly
151.87557°
Mean anomaly
134.7346°
Eccentric anomaly
143.67541°
Mean motion
2.31453 °/min
Orbital period
155.54 mins
BSTAR
0.00023277
Loading maneuver chart data...
Computing Atmospheric mass density...
Loading historical data...
Loading historical data...
Loading historical data...
Loading historical data...
Loading historical data...
Loading historical data...
Loading historical data...

Documentation

Showing up to 5 results
|